Retour au catalogue

METEOR 2-5 DEB

ActifPO
NORAD 40214·DEBRIS·🇷🇺 Russia

Lancé Oct 31, 1979 depuis Plesetsk Cosmodrome

Loading…

Prochains Passages (prochaines 24 heures)

TLE

FraisSource: Space-Track

Époque: Sep 13, 2026, 04:52 UTC

1 40214U 79095CM  26256.20293556  .00002776  00000-0  97814-3 0  9998
2 40214  81.2002  65.8850 0015647 162.7406 197.4313 14.34554014619697

Suivez METEOR 2-5 DEB en temps réel avec AllMySat

Download on the App Store